Weather in Novo-Shchedrinskaya

Russia / Chechen Republic     43°29′11″N   46°06′31″E
temp.,
°C
wind,
m/s
gust,
m/s
humid.,
%
clouds,
%
prec.,
mm/h
press.,
hPa
HPBL,
m
6 march, sat
sat600:00+5se23740 0.0 101930
03:00+4ese12760 0.0 101922
06:00+4s12650 0.0 101922
09:00+9sse22381 0.0 1018157
12:00+15e45250 0.0 1015426
15:00+18e46230 0.0 1013615
18:00+12ese36400 0.0 1013133
21:00+9ese125229 0.0 101331
7 march, sun
sun700:00+8w335099 0.0 101247
03:00+7wnw495399 0.0 1013202
06:00+5nw10136984 0.0 10191138
09:00+3wnw797692 0.3 1023886
12:00+5nw793999 0.2 10221677
15:00+5nw462899 0.2 10221440
18:00+4n233274 0.0 1023310
21:00+2ene233976 0.0 1023122
8 march, mon
mon800:000e35480 0.0 1022173
03:00−1e23618 0.0 102373
06:00−1ese12637 0.0 102240
09:00+3ene23463 0.0 1021365
12:00+7e574134 0.0 10181466
15:00+8e563967 0.0 10161483
18:00+5ene4754100 0.0 1016507
21:00+3e3462100 0.0 1017346
9 march, tue
tue900:00+3ese1271100 0.0 1017168
03:00+4ssw2267100 0.0 101764
06:00+3s1262100 0.0 101760
09:00+6sw115294 0.0 1017626
12:00+8ene213874 0.0 10161389
15:00+10ene223341 0.0 10151682
18:00+8ene23370 0.0 1016222
21:00+5ese225423 0.0 101874
10 march, wed
wed1000:00+5nw235485 0.0 101950
03:00+2nnw579488 0.1 1021495
06:00+2wsw3488100 0.3 1022284
09:00+4nw455899 0.3 10231113
12:00+5nnw4443100 0.0 10221418
15:00+5n4442100 0.0 10221360
18:00+4ene4440100 0.0 10211087
21:00+2ese6759100 0.2 1022909